This demonstration page uses our WeatherBlox Daily Observations layout. Learn more.

Hourly Observations for May 28, 2020

Temp ( °F °C ) Dew Point ( °F °C ) Humidity (%) Winds ( mph kmh ) Pressure ( in mb ) Visibility ( mi km ) Precip ( " mm )
12:53 am 00:53 Mostly Cloudy 58 14.4 54 12.2 87 87 NNE 7 11 30.05 1018 10 16.0934 0 0
1:21 am 01:21 Mostly Cloudy 57 13.9 54 12.2 90 90 ENE 6 9 30.07 1018 10 16.0934 0 0
1:53 am 01:53 Clear 56 13.3 52 11.1 87 87 WNW 3 6 30.06 1018 10 16.0934 0 0
2:53 am 02:53 Mostly Cloudy 56 13.3 52 11.1 87 87 NE 3 6 30.06 1018 10 16.0934 0 0
3:53 am 03:53 Mostly Cloudy 57 13.9 53 11.7 87 87 Calm 30.08 1019 10 16.0934 0 0
4:33 am 04:33 Mostly Cloudy 56 13.3 53 11.7 90 90 E 7 11 30.13 1020 10 16.0934 0 0
4:53 am 04:53 Cloudy 57 13.9 53 11.7 87 87 NE 6 9 30.1 1019 10 16.0934 0 0
5:53 am 05:53 Cloudy 57 13.9 52 11.1 83 83 NE 10 17 30.12 1020 10 16.0934 0 0
6:53 am 06:53 Cloudy 57 13.9 52 11.1 83 83 NNE 8 13 30.15 1021 10 16.0934 0 0
7:23 am 07:23 Cloudy 58 14.4 53 11.7 84 84 NNE 6 9 30.15 1021 10 16.0934 0 0
7:53 am 07:53 Cloudy 60 15.6 53 11.7 78 78 NNW 6 9 30.17 1022 10 16.0934 0 0
8:53 am 08:53 Cloudy 62 16.7 53 11.7 73 73 NNE 7 11 30.21 1023 10 16.0934 0 0
9:53 am 09:53 Cloudy 64 17.8 53 11.7 68 68 N 3 6 30.2 1023 10 16.0934 0 0
10:53 am 10:53 Cloudy 63 17.2 52 11.1 68 68 NNE 12 19 30.21 1023 10 16.0934 0 0
11:53 am 11:53 Cloudy 62 16.7 51 10.6 67 67 NNE 15 24 30.22 1023 10 16.0934 0 0
12:37 pm 12:37 Cloudy 64 17.8 50 10 60 60 NE 10 17 30.14 1021 10 16.0934 0 0
12:53 pm 12:53 Cloudy 64 17.8 50 10 60 60 ENE 8 13 30.22 1023 10 16.0934 0 0
1:53 pm 13:53 Cloudy 65 18.3 49 9.4 56 56 undefined N/A 30.21 1023 10 16.0934 0 0
2:53 pm 14:53 Cloudy 68 20 51 10.6 55 55 Calm 30.19 1022 10 16.0934 0 0
3:53 pm 15:53 Cloudy 71 21.7 51 10.6 49 49 VRB 6 9 30.16 1022 10 16.0934 0 0
4:53 pm 16:53 Mostly Cloudy 71 21.7 51 10.6 49 49 Calm 30.16 1021 10 16.0934 0 0
5:53 pm 17:53 Cloudy 70 21.1 51 10.6 51 51 S 7 11 30.15 1021 10 16.0934 0 0
6:53 pm 18:53 Mostly Sunny 70 21.1 50 10 49 49 ENE 5 7 30.15 1021 10 16.0934 0 0
7:53 pm 19:53 Sunny 66 18.9 52 11.1 61 61 ENE 6 9 30.16 1021 10 16.0934 0 0
8:53 pm 20:53 Clear 59 15 50 10 72 72 E 8 13 30.17 1022 10 16.0934 0 0
9:53 pm 21:53 Clear 56 13.3 48 8.9 75 75 E 5 7 30.2 1023 10 16.0934 0 0
10:53 pm 22:53 Clear 54 12.2 48 8.9 80 80 ENE 5 7 30.2 1023 10 16.0934 0 0
11:53 pm 23:53 Clear 53 11.7 47 8.3 80 80 E 6 9 30.21 1023 10 16.0934 0 0

Powered by AerisWeather